EW9605 Weather Reports


Display with metric or nautical units.
time (UTC)temp
F
wind
direction
speed
MPH
gust
MPH
rain 1hr
in
rain 24hr
in
rain mn
in
humidity
%
barometer
mb
20260507150132 83 0.0 0.0 0.00 0.00 0.00 70 1015.2
20260507145630 83 197 3.0 7.0 0.00 0.00 0.00 71 1015.1
20260507145129 83 227 4.0 8.0 0.00 0.00 0.00 71 1014.9
20260507144628 83 228 2.0 7.0 0.00 0.00 0.00 71 1015.1
20260507144126 83 202 3.0 6.0 0.00 0.00 0.00 72 1015.2
20260507143625 82 0.0 0.0 0.00 0.00 0.00 74 1015.0
20260507143123 82 218 2.0 3.0 0.00 0.00 0.00 73 1015.0
20260507142622 82 246 7.0 11.0 0.00 0.00 0.00 73 1015.0
20260507142121 82 192 4.0 10.0 0.00 0.00 0.00 75 1015.0
20260507141620 81 230 0.0 2.0 0.00 0.00 0.00 76 1015.0
20260507141119 81 215 2.0 4.0 0.00 0.00 0.00 77 1015.0
20260507140638 81 239 3.0 4.0 0.00 0.00 0.00 78 1015.2
20260507140116 81 222 2.0 3.0 0.00 0.00 0.00 80 1015.0
20260507135635 80 211 1.0 2.0 0.00 0.00 0.00 80 1015.0
20260507135134 80 0.0 0.0 0.00 0.00 0.00 80 1015.0
20260507134633 80 218 1.0 3.0 0.00 0.00 0.00 80 1015.0
20260507134131 79 156 0.0 3.0 0.00 0.00 0.00 79 1014.9
20260507133630 80 235 8.0 11.0 0.00 0.00 0.00 79 1014.8
20260507133149 80 0.0 0.0 0.00 0.00 0.00 82 1014.9
20260507132647 79 0.0 0.0 0.00 0.00 0.00 83 1014.9
20260507132126 79 0.0 0.0 0.00 0.00 0.00 83 1014.8
20260507131625 79 0.0 0.0 0.00 0.00 0.00 84 1014.9
20260507131124 78 0.0 0.0 0.00 0.00 0.00 85 1014.7
20260507130622 78 0.0 0.0 0.00 0.00 0.00 86 1014.7
20260507130121 78 0.0 0.0 0.00 0.00 0.00 86 1014.5
20260507125619 77 0.0 0.0 0.00 0.00 0.00 87 1014.6
20260507125118 77 0.0 0.0 0.00 0.00 0.00 87 1014.8
20260507124617 77 0.0 0.0 0.00 0.00 0.00 87 1014.7
20260507124136 76 0.0 0.0 0.00 0.00 0.00 87 1014.7
20260507123634 76 0.0 0.0 0.00 0.00 0.00 87 1014.5
20260507123133 76 0.0 0.0 0.00 0.00 0.00 87 1014.5
20260507122632 75 0.0 0.0 0.00 0.00 0.00 86 1014.6
20260507122131 75 0.0 0.0 0.00 0.00 0.00 87 1014.7
20260507121629 75 0.0 0.0 0.00 0.00 0.00 88 1014.6
20260507121128 75 0.0 0.0 0.00 0.00 0.00 89 1014.4
20260507120627 74 0.0 0.0 0.00 0.00 0.00 90 1014.4
20260507120125 74 0.0 0.0 0.00 0.00 0.00 91 1014.3
20260507115644 73 0.0 0.0 0.00 0.00 0.00 93 1014.3
20260507115123 72 0.0 0.0 0.00 0.00 0.00 93 1014.3
20260507114621 71 0.0 0.0 0.00 0.00 0.00 93 1014.3
20260507114120 71 0.0 0.0 0.00 0.00 0.00 94 1014.3
20260507113619 71 0.0 0.0 0.00 0.00 0.00 94 1014.3
20260507113118 70 0.0 0.0 0.00 0.00 0.00 94 1014.4
20260507112637 69 0.0 0.0 0.00 0.00 0.00 93 1014.3
20260507112135 69 0.0 0.0 0.00 0.00 0.00 93 1014.1
20260507111634 69 0.0 0.0 0.00 0.00 0.00 93 1014.2
20260507111134 68 0.0 0.0 0.00 0.00 0.00 93 1014.3
20260507110732 68 0.0 0.0 0.00 0.00 0.00 93 1014.0
20260507110130 68 0.0 0.0 0.00 0.00 0.00 92 1014.2
20260507105630 68 0.0 0.0 0.00 0.00 0.00 92 1014.2
20260507105128 68 0.0 0.0 0.00 0.00 0.00 92 1014.1
20260507104627 68 0.0 0.0 0.00 0.00 0.00 92 1014.0
20260507104125 68 0.0 0.0 0.00 0.00 0.00 92 1014.0
20260507103624 68 0.0 0.0 0.00 0.00 0.00 92 1013.9
20260507103123 68 0.0 0.0 0.00 0.00 0.00 92 1013.9
20260507102621 68 0.0 0.0 0.00 0.00 0.00 92 1013.9
20260507102120 68 0.0 0.0 0.00 0.00 0.00 92 1013.7
20260507101619 68 0.0 0.0 0.00 0.00 0.00 92 1013.7
20260507101117 68 0.0 0.0 0.00 0.00 0.00 92 1013.7
20260507100616 68 0.0 0.0 0.00 0.00 0.00 92 1013.6
20260507100135 68 0.0 0.0 0.00 0.00 0.00 92 1013.6
20260507095634 68 0.0 0.0 0.00 0.00 0.00 92 1013.6
20260507095132 69 0.0 0.0 0.00 0.00 0.00 92 1013.6
20260507094651 69 0.0 0.0 0.00 0.00 0.00 92 1013.5
20260507094130 69 0.0 0.0 0.00 0.00 0.00 92 1013.7
20260507093629 69 0.0 0.0 0.00 0.00 0.00 92 1013.5
20260507093127 69 0.0 0.0 0.00 0.00 0.00 92 1013.5
20260507092626 69 0.0 0.0 0.00 0.00 0.00 93 1013.3
20260507092145 70 0.0 0.0 0.00 0.00 0.00 93 1013.4
20260507091624 70 0.0 0.0 0.00 0.00 0.00 93 1013.5
20260507091122 70 0.0 0.0 0.00 0.00 0.00 93 1013.5
20260507090621 70 0.0 0.0 0.00 0.00 0.00 94 1013.2
20260507090120 70 0.0 0.0 0.00 0.00 0.00 94 1013.2
20260507085619 70 0.0 0.0 0.00 0.00 0.00 94 1013.3
20260507085157 70 0.0 0.0 0.00 0.00 0.00 95 1013.1
20260507084615 71 0.0 0.0 0.00 0.00 0.00 95 1013.1
20260507084154 71 0.0 0.0 0.00 0.00 0.00 95 1012.9
20260507083633 71 0.0 0.0 0.00 0.00 0.00 95 1012.8
20260507083132 71 0.0 0.0 0.00 0.00 0.00 95 1012.8
20260507082631 71 0.0 0.0 0.00 0.00 0.00 95 1012.7
20260507082130 71 0.0 0.0 0.00 0.00 0.00 95 1012.9
20260507081628 71 0.0 0.0 0.00 0.00 0.00 96 1012.8
20260507081127 71 0.0 0.0 0.00 0.00 0.00 96 1012.8
20260507080636 71 0.0 0.0 0.00 0.00 0.00 96 1013.0
20260507080215 71 0.0 0.0 0.00 0.00 0.00 96 1013.1
20260507075633 71 0.0 0.0 0.00 0.00 0.00 96 1012.8
20260507075132 71 0.0 0.0 0.00 0.00 0.00 96 1012.8
20260507074630 71 0.0 0.0 0.00 0.00 0.00 96 1012.7
20260507074149 71 0.0 0.0 0.00 0.00 0.00 96 1012.8
20260507073627 71 0.0 0.0 0.00 0.00 0.00 96 1012.7
20260507073126 72 0.0 0.0 0.00 0.00 0.00 96 1012.7
20260507072625 72 0.0 0.0 0.00 0.00 0.00 96 1012.7
20260507072124 72 0.0 0.0 0.00 0.00 0.00 96 1012.7
20260507071622 72 0.0 0.0 0.00 0.00 0.00 96 1012.8
20260507071121 72 0.0 0.0 0.00 0.00 0.00 96 1012.7
20260507070619 72 0.0 0.0 0.00 0.00 0.00 96 1013.1
20260507070118 72 0.0 0.0 0.00 0.00 0.00 96 1013.0
20260507065637 72 0.0 0.0 0.00 0.00 0.00 95 1013.3
20260507065156 72 0.0 0.0 0.00 0.00 0.00 95 1013.1
20260507064634 73 0.0 0.0 0.00 0.00 0.00 95 1013.1
20260507064253 73 0.0 0.0 0.00 0.00 0.00 95 1013.4
20260507063631 73 0.0 0.0 0.00 0.00 0.00 95 1013.5
20260507063150 73 0.0 0.0 0.00 0.00 0.00 94 1013.8
20260507062628 72 0.0 0.0 0.00 0.00 0.00 93 1013.8
20260507062127 73 0.0 0.0 0.00 0.00 0.00 93 1013.8
20260507061625 73 0.0 0.0 0.00 0.00 0.00 93 1013.8
20260507061129 73 0.0 0.0 0.00 0.00 0.00 93 1014.0
20260507060622 73 0.0 0.0 0.00 0.00 0.00 93 1014.0
20260507060121 73 0.0 0.0 0.00 0.00 0.00 93 1014.1
20260507055619 73 0.0 0.0 0.00 0.00 0.00 93 1014.1
20260507055118 73 0.0 0.0 0.00 0.00 0.00 93 1014.3
20260507054616 73 0.0 0.0 0.00 0.00 0.00 93 1014.1
20260507054135 73 0.0 0.0 0.00 0.00 0.00 93 1014.2
20260507053654 73 0.0 0.0 0.00 0.00 0.00 93 1014.3
20260507053132 73 0.0 0.0 0.00 0.00 0.00 93 1014.4
20260507052631 73 0.0 0.0 0.00 0.00 0.00 93 1014.5
20260507052129 73 0.0 0.0 0.00 0.00 0.00 94 1014.7
20260507051628 74 0.0 0.0 0.00 0.00 0.00 94 1014.7
20260507051126 74 0.0 0.0 0.00 0.00 0.00 94 1014.7
20260507050645 74 0.0 0.0 0.00 0.00 0.00 93 1014.7
20260507050123 74 0.0 0.0 0.00 0.00 0.00 93 1014.9
20260507045622 74 0.0 0.0 0.00 0.00 0.00 93 1014.9
20260507045121 74 0.0 0.0 0.00 0.00 0.00 92 1014.8
20260507044619 74 0.0 0.0 0.00 0.00 0.00 91 1014.8
20260507044118 75 0.0 0.0 0.00 0.00 0.00 90 1014.6
20260507043616 75 0.0 0.0 0.00 0.00 0.00 90 1014.7
20260507043135 75 0.0 0.0 0.00 0.00 0.00 90 1014.8
20260507042634 75 0.0 0.0 0.00 0.00 0.00 90 1014.5
20260507042132 75 0.0 0.0 0.00 0.00 0.00 90 1014.7
20260507041651 75 0.0 0.0 0.00 0.00 0.00 90 1014.6
20260507041150 75 0.0 0.0 0.00 0.00 0.00 89 1014.6
20260507040628 75 0.0 0.0 0.00 0.00 0.00 87 1014.5
20260507040127 75 0.0 0.0 0.00 0.00 0.00 88 1014.5
20260507035625 75 0.0 0.0 0.00 0.00 0.00 88 1014.4
20260507035123 75 0.0 0.0 0.00 0.00 0.00 88 1014.4
20260507034622 75 0.0 0.0 0.00 0.00 0.00 88 1014.2
20260507034121 75 0.0 0.0 0.00 0.00 0.00 88 1014.3
20260507033619 75 0.0 0.0 0.00 0.00 0.00 87 1014.4
20260507033118 76 0.0 0.0 0.00 0.00 0.00 87 1014.6
20260507032637 76 0.0 0.0 0.00 0.00 0.00 86 1014.3
20260507032115 76 0.0 0.0 0.00 0.00 0.00 86 1014.4
20260507031634 76 0.0 0.0 0.00 0.00 0.00 86 1014.2
20260507031132 76 0.0 0.0 0.00 0.00 0.00 86 1014.3
20260507030631 76 0.0 0.0 0.00 0.00 0.00 86 1014.3
20260507030130 76 0.0 0.0 0.00 0.00 0.00 85 1014.4
20260507025628 76 0.0 0.0 0.00 0.00 0.00 85 1014.3
20260507025127 76 0.0 0.0 0.00 0.00 0.00 84 1014.4
20260507024625 76 0.0 0.0 0.00 0.00 0.00 84 1014.4
20260507024124 76 0.0 0.0 0.00 0.00 0.00 84 1014.3
20260507023622 76 0.0 0.0 0.00 0.00 0.00 84 1014.3
20260507023221 76 0.0 0.0 0.00 0.00 0.00 84 1014.2
20260507022619 76 0.0 0.0 0.00 0.00 0.00 83 1014.4
20260507022118 77 0.0 0.0 0.00 0.00 0.00 83 1014.3
20260507021616 77 0.0 0.0 0.00 0.00 0.00 83 1014.2
20260507021135 77 0.0 0.0 0.00 0.00 0.00 83 1014.4
20260507020634 77 0.0 0.0 0.00 0.00 0.00 83 1014.4
20260507020132 77 0.0 0.0 0.00 0.00 0.00 83 1014.2
20260507015631 77 0.0 0.0 0.00 0.00 0.00 83 1014.3
20260507015129 77 0.0 0.0 0.00 0.00 0.00 83 1014.1
20260507014628 77 0.0 0.0 0.00 0.00 0.00 83 1014.2
20260507014127 77 0.0 0.0 0.00 0.00 0.00 83 1014.1
20260507013625 77 0.0 0.0 0.00 0.00 0.00 83 1014.1
20260507013123 77 0.0 0.0 0.00 0.00 0.00 82 1014.0
20260507012622 77 0.0 0.0 0.00 0.00 0.00 82 1014.1
20260507012121 77 0.0 0.0 0.00 0.00 0.00 82 1014.0
20260507011619 78 0.0 0.0 0.00 0.00 0.00 81 1014.1
20260507011118 78 259 2.0 2.0 0.00 0.00 0.00 81 1014.0
20260507010616 78 0.0 0.0 0.00 0.00 0.00 81 1014.2
20260507010135 78 0.0 0.0 0.00 0.00 0.00 80 1014.1
20260507005634 78 264 1.0 4.0 0.00 0.00 0.00 80 1014.1
20260507005132 78 0.0 0.0 0.00 0.00 0.00 79 1014.0
20260507004630 78 261 0.0 2.0 0.00 0.00 0.00 79 1014.0
20260507004129 79 0.0 0.0 0.00 0.00 0.00 78 1014.0
20260507003628 79 258 2.0 3.0 0.00 0.00 0.00 77 1013.8
20260507003146 79 0.0 0.0 0.00 0.00 0.00 76 1013.9
20260507002625 80 262 0.0 1.0 0.00 0.00 0.00 75 1014.0
20260507002123 80 249 1.0 4.0 0.00 0.00 0.00 74 1014.0
20260507001622 80 267 3.0 6.0 0.00 0.00 0.00 73 1014.1
20260507001121 81 272 3.0 6.0 0.00 0.00 0.00 72 1014.0
20260507000619 81 280 1.0 2.0 0.00 0.00 0.00 69 1014.0
20260507000118 81 269 2.0 3.0 0.00 0.00 0.00 67 1014.0
20260506235616 82 278 2.0 4.0 0.00 0.00 0.00 66 1013.9
20260506235134 82 269 3.0 3.0 0.00 0.00 0.00 64 1013.7
20260506234653 82 240 5.0 7.0 0.00 0.00 0.00 63 1014.0
20260506234132 83 279 2.0 4.0 0.00 0.00 0.00 62 1013.8
20260506233630 83 264 2.0 3.0 0.00 0.00 0.00 61 1013.7
20260506233129 84 256 3.0 4.0 0.00 0.00 0.00 60 1013.9
20260506232627 85 288 2.0 4.0 0.00 0.00 0.00 59 1013.9
20260506232307 86 254 4.0 6.0 0.00 0.00 0.00 57 1013.8
20260506231645 87 257 5.0 8.0 0.00 0.00 0.00 57 1013.8
20260506231123 87 265 2.0 6.0 0.00 0.00 0.00 57 1013.8
20260506230642 87 255 4.0 9.0 0.00 0.00 0.00 58 1013.8
20260506230120 88 303 2.0 7.0 0.00 0.00 0.00 58 1013.8
20260506225639 88 257 4.0 9.0 0.00 0.00 0.00 59 1013.9
20260506225117 87 262 5.0 8.0 0.00 0.00 0.00 59 1013.9
20260506224615 88 267 4.0 8.0 0.00 0.00 0.00 59 1013.7
20260506224134 88 273 5.0 10.0 0.00 0.00 0.00 58 1013.7
20260506223632 88 252 5.0 7.0 0.00 0.00 0.00 61 1013.7
20260506223131 88 264 5.0 10.0 0.00 0.00 0.00 60 1013.8
20260506222629 88 252 7.0 11.0 0.00 0.00 0.00 59 1013.6
20260506222128 88 230 5.0 9.0 0.00 0.00 0.00 61 1013.6
20260506221626 88 243 6.0 8.0 0.00 0.00 0.00 62 1013.6
20260506221125 88 230 6.0 8.0 0.00 0.00 0.00 60 1013.7
20260506220704 89 255 5.0 7.0 0.00 0.00 0.00 61 1013.7
20260506220123 89 258 5.0 10.0 0.00 0.00 0.00 60 1013.4
20260506215641 89 261 5.0 8.0 0.00 0.00 0.00 60 1013.5
20260506215120 90 258 4.0 6.0 0.00 0.00 0.00 60 1013.7
20260506214618 90 230 4.0 7.0 0.00 0.00 0.00 62 1013.6
20260506214117 89 229 5.0 8.0 0.00 0.00 0.00 60 1013.5
20260506213616 89 255 1.0 3.0 0.00 0.00 0.00 60 1013.6
20260506213135 90 247 5.0 8.0 0.00 0.00 0.00 58 1013.4
20260506212653 90 220 3.0 6.0 0.00 0.00 0.00 57 1013.6
20260506212152 90 236 6.0 10.0 0.00 0.00 0.00 58 1013.5
20260506211630 91 231 7.0 10.0 0.00 0.00 0.00 56 1013.7
20260506211149 91 236 3.0 8.0 0.00 0.00 0.00 57 1013.6
20260506210628 91 199 3.0 7.0 0.00 0.00 0.00 56 1013.6
20260506210126 90 224 2.0 10.0 0.00 0.00 0.00 60 1013.6
20260506205625 89 189 2.0 4.0 0.00 0.00 0.00 60 1013.4
20260506205123 90 257 6.0 10.0 0.00 0.00 0.00 59 1013.4
20260506204622 89 246 5.0 8.0 0.00 0.00 0.00 61 1013.6
20260506204120 89 232 8.0 11.0 0.00 0.00 0.00 60 1013.5
20260506203640 89 221 2.0 3.0 0.00 0.00 0.00 61 1013.6
20260506203118 89 239 4.0 8.0 0.00 0.00 0.00 61 1013.6
20260506202617 90 175 1.0 3.0 0.00 0.00 0.00 62 1013.5
20260506202116 90 214 2.0 6.0 0.00 0.00 0.00 60 1013.6
20260506201654 90 240 4.0 9.0 0.00 0.00 0.00 61 1013.6
20260506201133 89 208 5.0 7.0 0.00 0.00 0.00 62 1013.6
20260506200712 89 252 4.0 7.0 0.00 0.00 0.00 63 1013.6
20260506200131 89 231 9.0 11.0 0.00 0.00 0.00 63 1013.7
20260506195629 89 228 8.0 11.0 0.00 0.00 0.00 62 1013.7
20260506195128 90 224 3.0 6.0 0.00 0.00 0.00 64 1013.8
20260506194627 89 231 5.0 8.0 0.00 0.00 0.00 64 1013.7
20260506194125 89 245 5.0 9.0 0.00 0.00 0.00 62 1013.8
20260506193623 90 240 8.0 13.0 0.00 0.00 0.00 62 1013.8
20260506193122 89 230 6.0 9.0 0.00 0.00 0.00 64 1013.8
20260506192620 89 233 4.0 8.0 0.00 0.00 0.00 64 1014.0
20260506192139 89 225 5.0 9.0 0.00 0.00 0.00 64 1013.8
20260506191617 90 211 6.0 11.0 0.00 0.00 0.00 63 1013.9
20260506191136 89 241 3.0 6.0 0.00 0.00 0.00 63 1013.8
20260506190634 89 182 1.0 4.0 0.00 0.00 0.00 66 1014.0
20260506190132 88 246 4.0 7.0 0.00 0.00 0.00 65 1013.9
20260506185631 89 211 3.0 9.0 0.00 0.00 0.00 64 1014.1
20260506185150 89 201 2.0 7.0 0.00 0.00 0.00 65 1014.2
20260506184628 89 271 4.0 6.0 0.00 0.00 0.00 63 1014.2
20260506184147 90 220 9.0 14.0 0.00 0.00 0.00 64 1014.2
20260506183625 89 215 2.0 6.0 0.00 0.00 0.00 62 1014.2
20260506183124 89 245 2.0 6.0 0.00 0.00 0.00 62 1014.5
20260506182622 89 214 2.0 4.0 0.00 0.00 0.00 62 1014.6
20260506182121 90 211 6.0 8.0 0.00 0.00 0.00 60 1014.6
20260506181620 91 231 2.0 4.0 0.00 0.00 0.00 53 1014.7
20260506181119 90 186 0.0 1.0 0.00 0.00 0.00 56 1014.6
20260506180617 90 0.0 0.0 0.00 0.00 0.00 54 1014.7
20260506180116 90 158 1.0 1.0 0.00 0.00 0.00 54 1014.8
20260506175635 91 113 1.0 2.0 0.00 0.00 0.00 56 1014.8
20260506175133 90 197 0.0 1.0 0.00 0.00 0.00 58 1014.8
20260506174632 90 152 1.0 3.0 0.00 0.00 0.00 56 1014.8
20260506174131 90 150 1.0 3.0 0.00 0.00 0.00 56 1015.0
20260506173630 90 55 2.0 2.0 0.00 0.00 0.00 56 1015.1
20260506173129 90 230 0.0 1.0 0.00 0.00 0.00 58 1015.0
20260506172627 90 0.0 0.0 0.00 0.00 0.00 56 1015.0
20260506172126 90 300 0.0 1.0 0.00 0.00 0.00 59 1014.9
20260506171625 90 313 0.0 1.0 0.00 0.00 0.00 60 1015.1
20260506171144 89 0.0 0.0 0.00 0.00 0.00 58 1015.1
20260506170622 89 230 1.0 6.0 0.00 0.00 0.00 59 1015.1
20260506170121 89 171 1.0 3.0 0.00 0.00 0.00 58 1015.1
20260506165620 89 176 1.0 3.0 0.00 0.00 0.00 60 1015.3
20260506165119 88 159 2.0 7.0 0.00 0.00 0.00 63 1015.3
20260506164617 88 143 2.0 2.0 0.00 0.00 0.00 63 1015.2
20260506164116 87 175 1.0 2.0 0.00 0.00 0.00 63 1015.3
20260506163655 87 0.0 0.0 0.00 0.00 0.00 63 1015.4
20260506163134 88 0.0 0.0 0.00 0.00 0.00 61 1015.4
20260506162632 88 180 1.0 2.0 0.00 0.00 0.00 63 1015.4
20260506162131 87 177 3.0 4.0 0.00 0.00 0.00 65 1015.4
20260506161630 87 0.0 0.0 0.00 0.00 0.00 67 1015.6
20260506161129 86 135 1.0 2.0 0.00 0.00 0.00 65 1015.6
20260506160627 87 0.0 0.0 0.00 0.00 0.00 63 1015.7
20260506160126 86 171 2.0 7.0 0.00 0.00 0.00 67 1015.6
20260506155625 87 151 2.0 8.0 0.00 0.00 0.00 67 1015.5
20260506155124 87 0.0 0.0 0.00 0.00 0.00 65 1015.5
20260506154622 86 147 1.0 3.0 0.00 0.00 0.00 67 1015.4
20260506154121 86 166 3.0 7.0 0.00 0.00 0.00 68 1015.7
20260506153619 86 112 1.0 3.0 0.00 0.00 0.00 67 1015.5
20260506153118 85 115 1.0 2.0 0.00 0.00 0.00 68 1015.5
20260506152617 85 0.0 0.0 0.00 0.00 0.00 71 1015.4
20260506152116 85 180 2.0 3.0 0.00 0.00 0.00 71 1015.4
20260506151635 85 180 3.0 6.0 0.00 0.00 0.00 72 1015.5
20260506151134 85 0.0 0.0 0.00 0.00 0.00 71 1015.7
20260506150632 84 180 3.0 6.0 0.00 0.00 0.00 73 1015.5